Overview Statistics Trail Chart Weather Telemetry Raw packets
 

This is the latest recevied weather packets stored in our database for station/object K5MGY. If no packets are shown the sender has not sent any weather packets the latest 10 day(s).

<< 19 20 21 22 23 24 25 >>
Time Temp. Humidity Pressure Rain* Wind** Luminosity Snow
1788477984 32.22° C 57% 1034.8 hPa 0 mm - 29 W/m² -
1788477680 32.22° C 57% 1035 hPa 0 mm - 33 W/m² -
1788477374 32.22° C 57% 1034.8 hPa 0 mm - 32 W/m² -
1788477074 32.22° C 57% 1034.9 hPa 0 mm - 33 W/m² -
1788476770 32.22° C 57% 1034.9 hPa 0 mm - 36 W/m² -
1788476469 32.78° C 58% 1034.8 hPa 0 mm - 35 W/m² -
1788476167 32.78° C 57% 1035 hPa 0 mm - 37 W/m² -
1788475863 32.22° C 58% 1034.9 hPa 0 mm - 42 W/m² -
1788475559 32.78° C 58% 1035 hPa 0 mm - 44 W/m² -
1788475255 32.78° C 58% 1034.8 hPa 0 mm - 44 W/m² -
1788474987 32.78° C 57% 1035 hPa 0 mm - 48 W/m² -
1788474653 33.33° C 57% 1035 hPa 0 mm - 52 W/m² -
1788474348 33.33° C 56% 1034.9 hPa 0 mm - 69 W/m² -
1788474047 33.89° C 55% 1035.1 hPa 0 mm - 86 W/m² -
1788473743 33.89° C 56% 1034.9 hPa 0 mm - 86 W/m² -
1788473440 33.89° C 56% 1035 hPa 0 mm - 105 W/m² -
1788473134 33.33° C 56% 1034.8 hPa 0 mm - 108 W/m² -
1788472834 33.33° C 57% 1035 hPa 0 mm - 90 W/m² -
1788472533 33.33° C 56% 1034.8 hPa 0 mm - 86 W/m² -
1788472232 33.33° C 56% 1034.8 hPa 0 mm - 88 W/m² -
1788471932 33.89° C 56% 1034.9 hPa 0 mm - 94 W/m² -
1788471627 33.33° C 56% 1034.8 hPa 0 mm - 162 W/m² -
1788471323 33.89° C 56% 1035.1 hPa 0 mm - 85 W/m² -
1788471018 33.33° C 56% 1035.1 hPa 0 mm - 242 W/m² -
1788470715 33.33° C 56% 1035.2 hPa 0 mm - 401 W/m² -

* Rain latest hour (hover to see other rain measurements)
** Current wind speed in m/s (hover to see current wind gust speed)